owner,sensor,date,latitude,longitude,vertical_datum,sea_water_temperature,qcFlag 
TABS,ioos:station:wmo:42043:1,2003-07-21T13:00:00Z,28.9818,-94.9186,-2.0,29.25,11111222 
TABS,ioos:station:wmo:42043:1,2003-07-21T13:30:00Z,28.9818,-94.9186,-2.0,29.27,11111222 
TABS,ioos:station:wmo:42043:1,2003-07-21T14:00:00Z,28.9818,-94.9186,-2.0,29.31,11111222 
TABS,ioos:station:wmo:42043:1,2003-07-21T14:30:00Z,28.9818,-94.9186,-2.0,29.3,11111222 
TABS,ioos:station:wmo:42043:1,2003-07-21T15:00:00Z,28.9818,-94.9186,-2.0,29.33,11111222 
TABS,ioos:station:wmo:42043:1,2003-07-21T15:30:00Z,28.9818,-94.9186,-2.0,29.38,11111222 
TABS,ioos:station:wmo:42043:1,2003-07-21T16:00:00Z,28.9818,-94.9186,-2.0,29.45,11111222 
TABS,ioos:station:wmo:42043:1,2003-07-21T16:30:00Z,28.9818,-94.9186,-2.0,29.51,11111222 
TABS,ioos:station:wmo:42043:1,2003-07-21T17:00:00Z,28.9818,-94.9186,-2.0,29.58,11111222 
TABS,ioos:station:wmo:42043:1,2003-07-21T17:30:00Z,28.9818,-94.9186,-2.0,29.62,11111222 
TABS,ioos:station:wmo:42043:1,2003-07-21T18:00:00Z,28.9818,-94.9186,-2.0,29.63,11111222 
TABS,ioos:station:wmo:42043:1,2003-07-21T18:30:00Z,28.9818,-94.9186,-2.0,29.71,11111222 
TABS,ioos:station:wmo:42043:1,2003-07-21T19:00:00Z,28.9818,-94.9186,-2.0,29.84,11111222 
TABS,ioos:station:wmo:42043:1,2003-07-21T19:30:00Z,28.9818,-94.9186,-2.0,29.77,11111222 
TABS,ioos:station:wmo:42043:1,2003-07-21T20:00:00Z,28.9818,-94.9186,-2.0,29.8,11111222 
TABS,ioos:station:wmo:42043:1,2003-07-21T20:30:00Z,28.9818,-94.9186,-2.0,29.87,11111222 
TABS,ioos:station:wmo:42043:1,2003-07-21T21:00:00Z,28.9818,-94.9186,-2.0,29.88,11111222 
TABS,ioos:station:wmo:42043:1,2003-07-21T21:30:00Z,28.9818,-94.9186,-2.0,29.83,11111222 
TABS,ioos:station:wmo:42043:1,2003-07-21T22:00:00Z,28.9818,-94.9186,-2.0,29.79,11111222 
TABS,ioos:station:wmo:42043:1,2003-07-21T22:30:00Z,28.9818,-94.9186,-2.0,29.82,11111222 
TABS,ioos:station:wmo:42043:1,2003-07-21T23:00:00Z,28.9818,-94.9186,-2.0,29.88,11111222 
TABS,ioos:station:wmo:42043:1,2003-07-21T23:30:00Z,28.9818,-94.9186,-2.0,29.88,11111222 
TABS,ioos:station:wmo:42043:1,2003-07-22T00:00:00Z,28.9818,-94.9186,-2.0,29.92,11111222 
TABS,ioos:station:wmo:42043:1,2003-07-22T00:30:00Z,28.9818,-94.9186,-2.0,29.86,11111222 
TABS,ioos:station:wmo:42043:1,2003-07-22T01:00:00Z,28.9818,-94.9186,-2.0,29.84,11111222 
TABS,ioos:station:wmo:42043:1,2003-07-22T01:30:00Z,28.9818,-94.9186,-2.0,29.82,11111222 
TABS,ioos:station:wmo:42043:1,2003-07-22T02:00:00Z,28.9818,-94.9186,-2.0,29.76,11111222 
TABS,ioos:station:wmo:42043:1,2003-07-22T02:30:00Z,28.9818,-94.9186,-2.0,29.71,11111222 
TABS,ioos:station:wmo:42043:1,2003-07-22T03:00:00Z,28.9818,-94.9186,-2.0,29.68,11111222 
TABS,ioos:station:wmo:42043:1,2003-07-22T03:30:00Z,28.9818,-94.9186,-2.0,29.67,11111222 
TABS,ioos:station:wmo:42043:1,2003-07-22T04:00:00Z,28.9818,-94.9186,-2.0,29.66,11111222 
TABS,ioos:station:wmo:42043:1,2003-07-22T04:30:00Z,28.9818,-94.9186,-2.0,29.62,11111222 
TABS,ioos:station:wmo:42043:1,2003-07-22T05:00:00Z,28.9818,-94.9186,-2.0,29.6,11111222 
TABS,ioos:station:wmo:42043:1,2003-07-22T05:30:00Z,28.9818,-94.9186,-2.0,29.6,11111222 
TABS,ioos:station:wmo:42043:1,2003-07-22T06:00:00Z,28.9818,-94.9186,-2.0,29.57,11111222 
TABS,ioos:station:wmo:42043:1,2003-07-22T06:30:00Z,28.9818,-94.9186,-2.0,29.51,11111222 
TABS,ioos:station:wmo:42043:1,2003-07-22T07:00:00Z,28.9818,-94.9186,-2.0,29.54,11111222 
TABS,ioos:station:wmo:42043:1,2003-07-22T07:30:00Z,28.9818,-94.9186,-2.0,29.54,11111222 
TABS,ioos:station:wmo:42043:1,2003-07-22T08:00:00Z,28.9818,-94.9186,-2.0,29.57,11111222 
TABS,ioos:station:wmo:42043:1,2003-07-22T08:30:00Z,28.9818,-94.9186,-2.0,29.57,11111222 
TABS,ioos:station:wmo:42043:1,2003-07-22T09:00:00Z,28.9818,-94.9186,-2.0,29.56,11111222 
TABS,ioos:station:wmo:42043:1,2003-07-22T09:30:00Z,28.9818,-94.9186,-2.0,29.52,11111222 
TABS,ioos:station:wmo:42043:1,2003-07-22T10:00:00Z,28.9818,-94.9186,-2.0,29.49,11111222 
TABS,ioos:station:wmo:42043:1,2003-07-22T10:30:00Z,28.9818,-94.9186,-2.0,29.47,11111222 
TABS,ioos:station:wmo:42043:1,2003-07-22T11:00:00Z,28.9818,-94.9186,-2.0,29.43,11111222 
TABS,ioos:station:wmo:42043:1,2003-07-22T11:30:00Z,28.9818,-94.9186,-2.0,29.38,11111222 
TABS,ioos:station:wmo:42043:1,2003-07-22T12:00:00Z,28.9818,-94.9186,-2.0,29.36,11111222 
TABS,ioos:station:wmo:42043:1,2003-07-22T12:30:00Z,28.9818,-94.9186,-2.0,29.31,11111222 
TABS,ioos:station:wmo:42043:1,2003-07-22T13:00:00Z,28.9818,-94.9186,-2.0,29.31,11111222 
TABS,ioos:station:wmo:42043:1,2003-07-22T13:30:00Z,28.9818,-94.9186,-2.0,29.29,11111222 
TABS,ioos:station:wmo:42043:1,2003-07-22T14:00:00Z,28.9818,-94.9186,-2.0,29.29,11111222 
TABS,ioos:station:wmo:42043:1,2003-07-22T14:30:00Z,28.9818,-94.9186,-2.0,29.3,11111222 
TABS,ioos:station:wmo:42043:1,2003-07-22T15:00:00Z,28.9818,-94.9186,-2.0,29.37,11111222 
TABS,ioos:station:wmo:42043:1,2003-07-22T15:30:00Z,28.9818,-94.9186,-2.0,29.36,11111222 
TABS,ioos:station:wmo:42043:1,2003-07-22T16:00:00Z,28.9818,-94.9186,-2.0,29.42,11111222 
TABS,ioos:station:wmo:42043:1,2003-07-22T16:30:00Z,28.9818,-94.9186,-2.0,29.47,11111222 
TABS,ioos:station:wmo:42043:1,2003-07-22T17:00:00Z,28.9818,-94.9186,-2.0,29.5,11111222 
TABS,ioos:station:wmo:42043:1,2003-07-22T17:30:00Z,28.9818,-94.9186,-2.0,29.54,11111222 
TABS,ioos:station:wmo:42043:1,2003-07-22T18:00:00Z,28.9818,-94.9186,-2.0,29.59,11111222 
TABS,ioos:station:wmo:42043:1,2003-07-22T18:30:00Z,28.9818,-94.9186,-2.0,29.64,11111222 
TABS,ioos:station:wmo:42043:1,2003-07-22T19:00:00Z,28.9818,-94.9186,-2.0,29.69,11111222 
TABS,ioos:station:wmo:42043:1,2003-07-22T19:30:00Z,28.9818,-94.9186,-2.0,29.64,11111222 
TABS,ioos:station:wmo:42043:1,2003-07-22T20:00:00Z,28.9818,-94.9186,-2.0,29.64,11111222 
TABS,ioos:station:wmo:42043:1,2003-07-22T20:30:00Z,28.9818,-94.9186,-2.0,29.69,11111222 
TABS,ioos:station:wmo:42043:1,2003-07-22T21:00:00Z,28.9818,-94.9186,-2.0,29.68,11111222 
TABS,ioos:station:wmo:42043:1,2003-07-22T21:30:00Z,28.9818,-94.9186,-2.0,29.59,11111222 
TABS,ioos:station:wmo:42043:1,2003-07-22T22:00:00Z,28.9818,-94.9186,-2.0,29.65,11111222 
TABS,ioos:station:wmo:42043:1,2003-07-22T22:30:00Z,28.9818,-94.9186,-2.0,29.64,11111222 
TABS,ioos:station:wmo:42043:1,2003-07-22T23:00:00Z,28.9818,-94.9186,-2.0,29.59,11111222 
TABS,ioos:station:wmo:42043:1,2003-07-22T23:30:00Z,28.9818,-94.9186,-2.0,29.58,11111222 
TABS,ioos:station:wmo:42043:1,2003-07-23T00:00:00Z,28.9818,-94.9186,-2.0,29.53,11111222 
TABS,ioos:station:wmo:42043:1,2003-07-23T00:30:00Z,28.9818,-94.9186,-2.0,29.48,11111222 
TABS,ioos:station:wmo:42043:1,2003-07-23T01:00:00Z,28.9818,-94.9186,-2.0,29.4,11111222 
TABS,ioos:station:wmo:42043:1,2003-07-23T01:30:00Z,28.9818,-94.9186,-2.0,29.3,11111222 
TABS,ioos:station:wmo:42043:1,2003-07-23T02:00:00Z,28.9818,-94.9186,-2.0,29.18,11111222 
TABS,ioos:station:wmo:42043:1,2003-07-23T02:30:00Z,28.9818,-94.9186,-2.0,29.12,11111222 
TABS,ioos:station:wmo:42043:1,2003-07-23T03:00:00Z,28.9818,-94.9186,-2.0,29.05,11111222 
TABS,ioos:station:wmo:42043:1,2003-07-23T03:30:00Z,28.9818,-94.9186,-2.0,28.96,11111222 
TABS,ioos:station:wmo:42043:1,2003-07-23T04:00:00Z,28.9818,-94.9186,-2.0,28.9,11111222 
TABS,ioos:station:wmo:42043:1,2003-07-23T04:30:00Z,28.9818,-94.9186,-2.0,28.83,11111222 
TABS,ioos:station:wmo:42043:1,2003-07-23T05:00:00Z,28.9818,-94.9186,-2.0,28.77,11111222 
TABS,ioos:station:wmo:42043:1,2003-07-23T05:30:00Z,28.9818,-94.9186,-2.0,28.74,11111222 
TABS,ioos:station:wmo:42043:1,2003-07-23T06:00:00Z,28.9818,-94.9186,-2.0,28.72,11111222 
TABS,ioos:station:wmo:42043:1,2003-07-23T06:30:00Z,28.9818,-94.9186,-2.0,28.68,11111222 
TABS,ioos:station:wmo:42043:1,2003-07-23T07:00:00Z,28.9818,-94.9186,-2.0,28.68,11111222 
TABS,ioos:station:wmo:42043:1,2003-07-23T07:30:00Z,28.9818,-94.9186,-2.0,28.73,11111222 
TABS,ioos:station:wmo:42043:1,2003-07-23T08:00:00Z,28.9818,-94.9186,-2.0,28.74,11111222 
TABS,ioos:station:wmo:42043:1,2003-07-23T08:30:00Z,28.9818,-94.9186,-2.0,28.79,11111222 
TABS,ioos:station:wmo:42043:1,2003-07-23T09:00:00Z,28.9818,-94.9186,-2.0,28.84,11111222 
TABS,ioos:station:wmo:42043:1,2003-07-23T09:30:00Z,28.9818,-94.9186,-2.0,28.81,11111222 
TABS,ioos:station:wmo:42043:1,2003-07-23T10:00:00Z,28.9818,-94.9186,-2.0,28.79,11111222 
TABS,ioos:station:wmo:42043:1,2003-07-23T10:30:00Z,28.9818,-94.9186,-2.0,28.77,11111222 
TABS,ioos:station:wmo:42043:1,2003-07-23T11:00:00Z,28.9818,-94.9186,-2.0,28.74,11111222 
TABS,ioos:station:wmo:42043:1,2003-07-23T11:30:00Z,28.9818,-94.9186,-2.0,28.72,11111222 
TABS,ioos:station:wmo:42043:1,2003-07-23T12:00:00Z,28.9818,-94.9186,-2.0,28.74,11111222 
TABS,ioos:station:wmo:42043:1,2003-07-23T12:30:00Z,28.9818,-94.9186,-2.0,28.77,11111222 
TABS,ioos:station:wmo:42043:1,2003-07-23T13:00:00Z,28.9818,-94.9186,-2.0,28.76,11111222 
TABS,ioos:station:wmo:42043:1,2003-07-23T13:30:00Z,28.9818,-94.9186,-2.0,28.81,11111222 
TABS,ioos:station:wmo:42043:1,2003-07-23T14:00:00Z,28.9818,-94.9186,-2.0,28.81,11111222 
TABS,ioos:station:wmo:42043:1,2003-07-23T14:30:00Z,28.9818,-94.9186,-2.0,28.84,11111222 
TABS,ioos:station:wmo:42043:1,2003-07-23T15:00:00Z,28.9818,-94.9186,-2.0,28.87,11111222 
TABS,ioos:station:wmo:42043:1,2003-07-23T15:30:00Z,28.9818,-94.9186,-2.0,28.88,11111222 
TABS,ioos:station:wmo:42043:1,2003-07-23T16:00:00Z,28.9818,-94.9186,-2.0,28.95,11111222 
TABS,ioos:station:wmo:42043:1,2003-07-23T16:30:00Z,28.9818,-94.9186,-2.0,28.98,11111222 
TABS,ioos:station:wmo:42043:1,2003-07-23T17:00:00Z,28.9818,-94.9186,-2.0,28.99,11111222 
TABS,ioos:station:wmo:42043:1,2003-07-23T17:30:00Z,28.9818,-94.9186,-2.0,29.01,11111222 
TABS,ioos:station:wmo:42043:1,2003-07-23T18:00:00Z,28.9818,-94.9186,-2.0,29.09,11111222 
TABS,ioos:station:wmo:42043:1,2003-07-23T18:30:00Z,28.9818,-94.9186,-2.0,29.12,11111222 
TABS,ioos:station:wmo:42043:1,2003-07-23T19:00:00Z,28.9818,-94.9186,-2.0,29.05,11111222 
TABS,ioos:station:wmo:42043:1,2003-07-23T19:30:00Z,28.9818,-94.9186,-2.0,29.01,11111222 
TABS,ioos:station:wmo:42043:1,2003-07-23T20:00:00Z,28.9818,-94.9186,-2.0,28.97,11111222 
TABS,ioos:station:wmo:42043:1,2003-07-23T20:30:00Z,28.9818,-94.9186,-2.0,28.97,11111222 
TABS,ioos:station:wmo:42043:1,2003-07-23T21:00:00Z,28.9818,-94.9186,-2.0,28.95,11111222 
TABS,ioos:station:wmo:42043:1,2003-07-23T21:30:00Z,28.9818,-94.9186,-2.0,28.93,11111222 
TABS,ioos:station:wmo:42043:1,2003-07-23T22:00:00Z,28.9818,-94.9186,-2.0,28.91,11111222 
TABS,ioos:station:wmo:42043:1,2003-07-23T22:30:00Z,28.9818,-94.9186,-2.0,28.91,11111222 
TABS,ioos:station:wmo:42043:1,2003-07-23T23:00:00Z,28.9818,-94.9186,-2.0,28.89,11111222 
TABS,ioos:station:wmo:42043:1,2003-07-23T23:30:00Z,28.9818,-94.9186,-2.0,28.89,11111222 
TABS,ioos:station:wmo:42043:1,2003-07-24T00:00:00Z,28.9818,-94.9186,-2.0,28.88,11111222 
TABS,ioos:station:wmo:42043:1,2003-07-24T00:30:00Z,28.9818,-94.9186,-2.0,28.81,11111222 
TABS,ioos:station:wmo:42043:1,2003-07-24T01:00:00Z,28.9818,-94.9186,-2.0,28.79,11111222 
TABS,ioos:station:wmo:42043:1,2003-07-24T01:30:00Z,28.9818,-94.9186,-2.0,28.76,11111222 
TABS,ioos:station:wmo:42043:1,2003-07-24T02:00:00Z,28.9818,-94.9186,-2.0,28.67,11111222 
TABS,ioos:station:wmo:42043:1,2003-07-24T02:30:00Z,28.9818,-94.9186,-2.0,28.67,11111222 
TABS,ioos:station:wmo:42043:1,2003-07-24T03:00:00Z,28.9818,-94.9186,-2.0,28.69,11111222 
TABS,ioos:station:wmo:42043:1,2003-07-24T03:30:00Z,28.9818,-94.9186,-2.0,28.64,11111222 
TABS,ioos:station:wmo:42043:1,2003-07-24T04:00:00Z,28.9818,-94.9186,-2.0,28.62,11111222 
TABS,ioos:station:wmo:42043:1,2003-07-24T04:30:00Z,28.9818,-94.9186,-2.0,28.57,11111222 
TABS,ioos:station:wmo:42043:1,2003-07-24T05:00:00Z,28.9818,-94.9186,-2.0,28.52,11111222 
TABS,ioos:station:wmo:42043:1,2003-07-24T05:30:00Z,28.9818,-94.9186,-2.0,28.56,11111222 
TABS,ioos:station:wmo:42043:1,2003-07-24T06:00:00Z,28.9818,-94.9186,-2.0,28.63,11111222 
TABS,ioos:station:wmo:42043:1,2003-07-24T06:30:00Z,28.9818,-94.9186,-2.0,28.69,11111222 
TABS,ioos:station:wmo:42043:1,2003-07-24T07:00:00Z,28.9818,-94.9186,-2.0,28.73,11111222 
TABS,ioos:station:wmo:42043:1,2003-07-24T07:30:00Z,28.9818,-94.9186,-2.0,28.73,11111222 
TABS,ioos:station:wmo:42043:1,2003-07-24T08:00:00Z,28.9818,-94.9186,-2.0,28.66,11111222 
TABS,ioos:station:wmo:42043:1,2003-07-24T08:30:00Z,28.9818,-94.9186,-2.0,28.54,11111222 
TABS,ioos:station:wmo:42043:1,2003-07-24T09:00:00Z,28.9818,-94.9186,-2.0,28.56,11111222 
TABS,ioos:station:wmo:42043:1,2003-07-24T09:30:00Z,28.9818,-94.9186,-2.0,28.58,11111222 
TABS,ioos:station:wmo:42043:1,2003-07-24T10:00:00Z,28.9818,-94.9186,-2.0,28.6,11111222 
TABS,ioos:station:wmo:42043:1,2003-07-24T10:30:00Z,28.9818,-94.9186,-2.0,28.6,11111222 
TABS,ioos:station:wmo:42043:1,2003-07-24T11:00:00Z,28.9818,-94.9186,-2.0,28.61,11111222 
TABS,ioos:station:wmo:42043:1,2003-07-24T11:30:00Z,28.9818,-94.9186,-2.0,28.6,11111222 
TABS,ioos:station:wmo:42043:1,2003-07-24T12:00:00Z,28.9818,-94.9186,-2.0,28.6,11111222 
TABS,ioos:station:wmo:42043:1,2003-07-24T12:30:00Z,28.9818,-94.9186,-2.0,28.59,11111222 
TABS,ioos:station:wmo:42043:1,2003-07-24T13:00:00Z,28.9818,-94.9186,-2.0,28.57,11111222 
TABS,ioos:station:wmo:42043:1,2003-07-24T13:30:00Z,28.9818,-94.9186,-2.0,28.59,11111222 
TABS,ioos:station:wmo:42043:1,2003-07-24T14:00:00Z,28.9818,-94.9186,-2.0,28.64,11111222 
TABS,ioos:station:wmo:42043:1,2003-07-24T14:30:00Z,28.9818,-94.9186,-2.0,28.68,11111222 
TABS,ioos:station:wmo:42043:1,2003-07-24T15:00:00Z,28.9818,-94.9186,-2.0,28.77,11111222 
TABS,ioos:station:wmo:42043:1,2003-07-24T15:30:00Z,28.9818,-94.9186,-2.0,28.85,11111222 
TABS,ioos:station:wmo:42043:1,2003-07-24T16:00:00Z,28.9818,-94.9186,-2.0,28.91,11111222 
TABS,ioos:station:wmo:42043:1,2003-07-24T16:30:00Z,28.9818,-94.9186,-2.0,28.89,11111222 
TABS,ioos:station:wmo:42043:1,2003-07-24T17:00:00Z,28.9818,-94.9186,-2.0,28.86,11111222 
TABS,ioos:station:wmo:42043:1,2003-07-24T17:30:00Z,28.9818,-94.9186,-2.0,28.85,11111222 
TABS,ioos:station:wmo:42043:1,2003-07-24T18:00:00Z,28.9818,-94.9186,-2.0,28.83,11111222 
TABS,ioos:station:wmo:42043:1,2003-07-24T18:30:00Z,28.9818,-94.9186,-2.0,28.83,11111222 
TABS,ioos:station:wmo:42043:1,2003-07-24T19:00:00Z,28.9818,-94.9186,-2.0,28.85,11111222 
TABS,ioos:station:wmo:42043:1,2003-07-24T19:30:00Z,28.9818,-94.9186,-2.0,28.81,11111222 
TABS,ioos:station:wmo:42043:1,2003-07-24T20:00:00Z,28.9818,-94.9186,-2.0,28.87,11111222 
TABS,ioos:station:wmo:42043:1,2003-07-24T20:30:00Z,28.9818,-94.9186,-2.0,28.85,11111222 
TABS,ioos:station:wmo:42043:1,2003-07-24T21:00:00Z,28.9818,-94.9186,-2.0,28.89,11111222 
TABS,ioos:station:wmo:42043:1,2003-07-24T21:30:00Z,28.9818,-94.9186,-2.0,28.77,11111222 
TABS,ioos:station:wmo:42043:1,2003-07-24T22:00:00Z,28.9818,-94.9186,-2.0,28.75,11111222 
TABS,ioos:station:wmo:42043:1,2003-07-24T22:30:00Z,28.9818,-94.9186,-2.0,28.77,11111222 
TABS,ioos:station:wmo:42043:1,2003-07-24T23:00:00Z,28.9818,-94.9186,-2.0,28.72,11111222 
TABS,ioos:station:wmo:42043:1,2003-07-24T23:30:00Z,28.9818,-94.9186,-2.0,29.02,11111222 
TABS,ioos:station:wmo:42043:1,2003-07-25T00:00:00Z,28.9818,-94.9186,-2.0,29.38,11111222 
TABS,ioos:station:wmo:42043:1,2003-07-25T00:30:00Z,28.9818,-94.9186,-2.0,29.29,11111222 
TABS,ioos:station:wmo:42043:1,2003-07-25T01:00:00Z,28.9818,-94.9186,-2.0,29.22,11111222 
TABS,ioos:station:wmo:42043:1,2003-07-25T01:30:00Z,28.9818,-94.9186,-2.0,29.24,11111222 
TABS,ioos:station:wmo:42043:1,2003-07-25T02:00:00Z,28.9818,-94.9186,-2.0,29.19,11111222 
TABS,ioos:station:wmo:42043:1,2003-07-25T02:30:00Z,28.9818,-94.9186,-2.0,29.1,11111222 
TABS,ioos:station:wmo:42043:1,2003-07-25T03:00:00Z,28.9818,-94.9186,-2.0,29.06,11111222 
TABS,ioos:station:wmo:42043:1,2003-07-25T03:30:00Z,28.9818,-94.9186,-2.0,28.91,11111222 
TABS,ioos:station:wmo:42043:1,2003-07-25T04:00:00Z,28.9818,-94.9186,-2.0,28.84,11111222 
TABS,ioos:station:wmo:42043:1,2003-07-25T04:30:00Z,28.9818,-94.9186,-2.0,28.91,11111222 
TABS,ioos:station:wmo:42043:1,2003-07-25T05:00:00Z,28.9818,-94.9186,-2.0,28.9,11111222 
TABS,ioos:station:wmo:42043:1,2003-07-25T05:30:00Z,28.9818,-94.9186,-2.0,28.77,11111222 
TABS,ioos:station:wmo:42043:1,2003-07-25T06:00:00Z,28.9818,-94.9186,-2.0,28.64,11111222 
TABS,ioos:station:wmo:42043:1,2003-07-25T06:30:00Z,28.9818,-94.9186,-2.0,28.6,11111222 
TABS,ioos:station:wmo:42043:1,2003-07-25T07:00:00Z,28.9818,-94.9186,-2.0,28.72,11111222 
TABS,ioos:station:wmo:42043:1,2003-07-25T07:30:00Z,28.9818,-94.9186,-2.0,28.8,11111222 
TABS,ioos:station:wmo:42043:1,2003-07-25T08:00:00Z,28.9818,-94.9186,-2.0,28.79,11111222 
TABS,ioos:station:wmo:42043:1,2003-07-25T08:30:00Z,28.9818,-94.9186,-2.0,28.77,11111222 
TABS,ioos:station:wmo:42043:1,2003-07-25T09:00:00Z,28.9818,-94.9186,-2.0,28.75,11111222 
TABS,ioos:station:wmo:42043:1,2003-07-25T09:30:00Z,28.9818,-94.9186,-2.0,28.75,11111222 
TABS,ioos:station:wmo:42043:1,2003-07-25T10:00:00Z,28.9818,-94.9186,-2.0,28.74,11111222 
TABS,ioos:station:wmo:42043:1,2003-07-25T10:30:00Z,28.9818,-94.9186,-2.0,28.72,11111222 
TABS,ioos:station:wmo:42043:1,2003-07-25T11:00:00Z,28.9818,-94.9186,-2.0,28.65,11111222 
TABS,ioos:station:wmo:42043:1,2003-07-25T11:30:00Z,28.9818,-94.9186,-2.0,28.64,11111222 
TABS,ioos:station:wmo:42043:1,2003-07-25T12:00:00Z,28.9818,-94.9186,-2.0,28.56,11111222 
TABS,ioos:station:wmo:42043:1,2003-07-25T12:30:00Z,28.9818,-94.9186,-2.0,28.55,11111222 
TABS,ioos:station:wmo:42043:1,2003-07-25T13:00:00Z,28.9818,-94.9186,-2.0,28.43,11111222 
TABS,ioos:station:wmo:42043:1,2003-07-25T13:30:00Z,28.9818,-94.9186,-2.0,28.39,11111222 
TABS,ioos:station:wmo:42043:1,2003-07-25T14:00:00Z,28.9818,-94.9186,-2.0,28.3,11111222 
TABS,ioos:station:wmo:42043:1,2003-07-25T14:30:00Z,28.9818,-94.9186,-2.0,28.21,11111222 
TABS,ioos:station:wmo:42043:1,2003-07-25T15:00:00Z,28.9818,-94.9186,-2.0,28.16,11111222 
TABS,ioos:station:wmo:42043:1,2003-07-25T15:30:00Z,28.9818,-94.9186,-2.0,28.17,11111222 
TABS,ioos:station:wmo:42043:1,2003-07-25T16:00:00Z,28.9818,-94.9186,-2.0,28.13,11111222 
TABS,ioos:station:wmo:42043:1,2003-07-25T16:30:00Z,28.9818,-94.9186,-2.0,28.16,11111222 
TABS,ioos:station:wmo:42043:1,2003-07-25T17:00:00Z,28.9818,-94.9186,-2.0,28.12,11111222 
TABS,ioos:station:wmo:42043:1,2003-07-25T17:30:00Z,28.9818,-94.9186,-2.0,28.14,11111222 
TABS,ioos:station:wmo:42043:1,2003-07-25T18:00:00Z,28.9818,-94.9186,-2.0,28.18,11111222 
TABS,ioos:station:wmo:42043:1,2003-07-25T18:30:00Z,28.9818,-94.9186,-2.0,28.19,11111222 
TABS,ioos:station:wmo:42043:1,2003-07-25T19:00:00Z,28.9818,-94.9186,-2.0,28.16,11111222 
TABS,ioos:station:wmo:42043:1,2003-07-25T19:30:00Z,28.9818,-94.9186,-2.0,28.15,11111222 
TABS,ioos:station:wmo:42043:1,2003-07-25T20:00:00Z,28.9818,-94.9186,-2.0,28.17,11111222 
TABS,ioos:station:wmo:42043:1,2003-07-25T20:30:00Z,28.9818,-94.9186,-2.0,28.14,11111222 
TABS,ioos:station:wmo:42043:1,2003-07-25T21:00:00Z,28.9818,-94.9186,-2.0,28.23,11111222 
TABS,ioos:station:wmo:42043:1,2003-07-25T21:30:00Z,28.9818,-94.9186,-2.0,28.25,11111222 
TABS,ioos:station:wmo:42043:1,2003-07-25T22:00:00Z,28.9818,-94.9186,-2.0,28.29,11111222 
TABS,ioos:station:wmo:42043:1,2003-07-25T22:30:00Z,28.9818,-94.9186,-2.0,28.34,11111222 
TABS,ioos:station:wmo:42043:1,2003-07-25T23:00:00Z,28.9818,-94.9186,-2.0,28.28,11111222 
TABS,ioos:station:wmo:42043:1,2003-07-25T23:30:00Z,28.9818,-94.9186,-2.0,28.25,11111222 
TABS,ioos:station:wmo:42043:1,2003-07-26T00:00:00Z,28.9818,-94.9186,-2.0,28.39,11111222 
TABS,ioos:station:wmo:42043:1,2003-07-26T00:30:00Z,28.9818,-94.9186,-2.0,28.41,11111222 
TABS,ioos:station:wmo:42043:1,2003-07-26T01:00:00Z,28.9818,-94.9186,-2.0,28.43,11111222 
TABS,ioos:station:wmo:42043:1,2003-07-26T01:30:00Z,28.9818,-94.9186,-2.0,28.42,11111222 
TABS,ioos:station:wmo:42043:1,2003-07-26T02:00:00Z,28.9818,-94.9186,-2.0,28.3,11111222 
TABS,ioos:station:wmo:42043:1,2003-07-26T02:30:00Z,28.9818,-94.9186,-2.0,28.27,11111222 
TABS,ioos:station:wmo:42043:1,2003-07-26T03:00:00Z,28.9818,-94.9186,-2.0,28.26,11111222 
TABS,ioos:station:wmo:42043:1,2003-07-26T03:30:00Z,28.9818,-94.9186,-2.0,28.26,11111222 
TABS,ioos:station:wmo:42043:1,2003-07-26T04:00:00Z,28.9818,-94.9186,-2.0,28.25,11111222 
TABS,ioos:station:wmo:42043:1,2003-07-26T04:30:00Z,28.9818,-94.9186,-2.0,28.32,11111222 
TABS,ioos:station:wmo:42043:1,2003-07-26T05:00:00Z,28.9818,-94.9186,-2.0,28.45,11111222 
TABS,ioos:station:wmo:42043:1,2003-07-26T05:30:00Z,28.9818,-94.9186,-2.0,28.58,11111222 
TABS,ioos:station:wmo:42043:1,2003-07-26T06:00:00Z,28.9818,-94.9186,-2.0,28.73,11111222 
TABS,ioos:station:wmo:42043:1,2003-07-26T06:30:00Z,28.9818,-94.9186,-2.0,28.73,11111222 
TABS,ioos:station:wmo:42043:1,2003-07-26T07:00:00Z,28.9818,-94.9186,-2.0,28.73,11111222 
TABS,ioos:station:wmo:42043:1,2003-07-26T07:30:00Z,28.9818,-94.9186,-2.0,28.73,11111222 
TABS,ioos:station:wmo:42043:1,2003-07-26T08:00:00Z,28.9818,-94.9186,-2.0,28.75,11111222 
TABS,ioos:station:wmo:42043:1,2003-07-26T08:30:00Z,28.9818,-94.9186,-2.0,28.82,11111222 
TABS,ioos:station:wmo:42043:1,2003-07-26T09:00:00Z,28.9818,-94.9186,-2.0,28.9,11111222 
TABS,ioos:station:wmo:42043:1,2003-07-26T09:30:00Z,28.9818,-94.9186,-2.0,28.97,11111222 
TABS,ioos:station:wmo:42043:1,2003-07-26T10:00:00Z,28.9818,-94.9186,-2.0,29.0,11111222 
TABS,ioos:station:wmo:42043:1,2003-07-26T10:30:00Z,28.9818,-94.9186,-2.0,29.0,11111222 
TABS,ioos:station:wmo:42043:1,2003-07-26T11:00:00Z,28.9818,-94.9186,-2.0,29.0,11111222 
TABS,ioos:station:wmo:42043:1,2003-07-26T11:30:00Z,28.9818,-94.9186,-2.0,29.01,11111222 
TABS,ioos:station:wmo:42043:1,2003-07-26T12:00:00Z,28.9818,-94.9186,-2.0,29.01,11111222 
TABS,ioos:station:wmo:42043:1,2003-07-26T12:30:00Z,28.9818,-94.9186,-2.0,29.02,11111222 
TABS,ioos:station:wmo:42043:1,2003-07-26T13:00:00Z,28.9818,-94.9186,-2.0,29.04,11111222 
TABS,ioos:station:wmo:42043:1,2003-07-26T13:30:00Z,28.9818,-94.9186,-2.0,29.04,11111222 
TABS,ioos:station:wmo:42043:1,2003-07-26T14:00:00Z,28.9818,-94.9186,-2.0,29.08,11111222 
TABS,ioos:station:wmo:42043:1,2003-07-26T14:30:00Z,28.9818,-94.9186,-2.0,29.12,11111222 
TABS,ioos:station:wmo:42043:1,2003-07-26T15:00:00Z,28.9818,-94.9186,-2.0,29.16,11111222 
TABS,ioos:station:wmo:42043:1,2003-07-26T15:30:00Z,28.9818,-94.9186,-2.0,29.21,11111222 
TABS,ioos:station:wmo:42043:1,2003-07-26T16:00:00Z,28.9818,-94.9186,-2.0,29.27,11111222 
TABS,ioos:station:wmo:42043:1,2003-07-26T16:30:00Z,28.9818,-94.9186,-2.0,29.34,11111222 
TABS,ioos:station:wmo:42043:1,2003-07-26T17:00:00Z,28.9818,-94.9186,-2.0,29.42,11111222 
TABS,ioos:station:wmo:42043:1,2003-07-26T17:30:00Z,28.9818,-94.9186,-2.0,29.52,11111222 
TABS,ioos:station:wmo:42043:1,2003-07-26T18:00:00Z,28.9818,-94.9186,-2.0,29.61,11111222 
TABS,ioos:station:wmo:42043:1,2003-07-26T18:30:00Z,28.9818,-94.9186,-2.0,29.66,11111222 
TABS,ioos:station:wmo:42043:1,2003-07-26T19:00:00Z,28.9818,-94.9186,-2.0,29.71,11111222 
TABS,ioos:station:wmo:42043:1,2003-07-26T19:30:00Z,28.9818,-94.9186,-2.0,29.75,11111222 
TABS,ioos:station:wmo:42043:1,2003-07-26T20:00:00Z,28.9818,-94.9186,-2.0,29.79,11111222 
TABS,ioos:station:wmo:42043:1,2003-07-26T20:30:00Z,28.9818,-94.9186,-2.0,29.79,11111222 
TABS,ioos:station:wmo:42043:1,2003-07-26T21:00:00Z,28.9818,-94.9186,-2.0,29.81,11111222 
TABS,ioos:station:wmo:42043:1,2003-07-26T21:30:00Z,28.9818,-94.9186,-2.0,29.87,11111222 
TABS,ioos:station:wmo:42043:1,2003-07-26T22:00:00Z,28.9818,-94.9186,-2.0,29.88,11111222 
TABS,ioos:station:wmo:42043:1,2003-07-26T22:30:00Z,28.9818,-94.9186,-2.0,29.93,11111222 
TABS,ioos:station:wmo:42043:1,2003-07-26T23:00:00Z,28.9818,-94.9186,-2.0,29.99,11111222 
TABS,ioos:station:wmo:42043:1,2003-07-26T23:30:00Z,28.9818,-94.9186,-2.0,29.95,11111222 
TABS,ioos:station:wmo:42043:1,2003-07-27T00:00:00Z,28.9818,-94.9186,-2.0,29.92,11111222 
TABS,ioos:station:wmo:42043:1,2003-07-27T00:30:00Z,28.9818,-94.9186,-2.0,29.86,11111222 
TABS,ioos:station:wmo:42043:1,2003-07-27T01:00:00Z,28.9818,-94.9186,-2.0,29.76,11111222 
TABS,ioos:station:wmo:42043:1,2003-07-27T01:30:00Z,28.9818,-94.9186,-2.0,29.68,11111222 
TABS,ioos:station:wmo:42043:1,2003-07-27T02:00:00Z,28.9818,-94.9186,-2.0,29.66,11111222 
TABS,ioos:station:wmo:42043:1,2003-07-27T02:30:00Z,28.9818,-94.9186,-2.0,29.63,11111222 
TABS,ioos:station:wmo:42043:1,2003-07-27T03:00:00Z,28.9818,-94.9186,-2.0,29.58,11111222 